Hyannis, MA

7:45 AM EDT on June 28, 2017 (GMT -0400)
Barnstable Municipal-Boardman-Polando Field

Weather History for KHYA - September, 2011

Change the Weather History Date:

Thursday, September 29, 2011

  Actual Average Record
Temperature  
Mean Temperature 68 °F -  
Max Temperature 73 °F 67 °F 80 °F (1948)
Min Temperature 64 °F 50 °F 26 °F (1957)
Cooling Degree Days 4    
Growing Degree Days 18 (Base 50)    
Moisture  
Dew Point 66 °F    
Average Humidity 93    
Maximum Humidity 100    
Minimum Humidity 83    
Precipitation  
Precipitation 0.72 in - - ()
Sea Level Pressure  
Sea Level Pressure 29.75 in    
Wind  
Wind Speed 10 mph (South)    
Max Wind Speed 18 mph    
Max Gust Speed 33 mph    
Visibility 7 miles    
Events Rain , Thunderstorm    
Averages and records for this station are not official NWS values.
T = Trace of Precipitation, MM = Missing Value Source: NWS Daily Summary

Daily Weather History Graph

Daily Weather History Graph

Search for Another Location

Airport or City:

Trip Planner

Search our weather history database for the weather conditions in past years. The results will help you decide how hot, cold, wet, or windy it might be!

Date:

Astronomy

Sep. 29, 2011 Rise Set
Actual Time 6:35 AM EDT 6:26 PM EDT
Civil Twilight 6:07 AM EDT 6:54 PM EDT
Nautical Twilight 5:35 AM EDT 7:26 PM EDT
Astronomical Twilight 5:02 AM EDT 7:59 PM EDT
Moon 9:19 AM EDT (9/29) 7:33 PM EDT (9/29)
Length of Visible Light 12h 46m
Length of Day
11h 51m
Waxing Crescent, 7% of the Moon is Illuminated
Sep 29
Waxing Crescent
Oct 3
First Quarter
Oct 11
Full
Oct 19
Last Quarter
Oct 26
New

Hourly Weather History & Observations

Time (EDT) Temp. Dew Point Humidity Pressure Visibility Wind Dir Wind Speed Gust Speed Precip Events Conditions
12:56 AM 64.9 °F 62.1 °F 90% 29.94 in 10.0 mi ESE 13.8 mph 23.0 mph N/A   Overcast
1:56 AM 64.9 °F 62.1 °F 90% 29.92 in 7.0 mi ESE 11.5 mph 21.9 mph 0.01 in Rain Rain
2:26 AM 64.4 °F 62.6 °F 94% 29.91 in 3.0 mi ESE 9.2 mph 18.4 mph 0.09 in Rain Heavy Rain
2:56 AM 64.9 °F 63.0 °F 93% 29.90 in 3.0 mi ESE 9.2 mph - 0.21 in Rain Heavy Rain
3:33 AM 64.4 °F 64.4 °F 100% 29.87 in 4.0 mi ESE 13.8 mph 21.9 mph 0.13 in Rain Rain
3:56 AM 64.9 °F 64.0 °F 97% 29.87 in 5.0 mi ESE 10.4 mph 21.9 mph 0.17 in Rain Light Rain
4:06 AM 64.4 °F 64.4 °F 100% 29.86 in 6.0 mi ESE 10.4 mph 19.6 mph 0.01 in Rain Light Rain
4:48 AM 64.4 °F 64.4 °F 100% 29.85 in 8.0 mi East 9.2 mph 20.7 mph 0.02 in Rain Light Rain
4:56 AM 64.9 °F 64.0 °F 97% 29.86 in 8.0 mi ESE 9.2 mph 20.7 mph 0.02 in Rain Light Rain
5:56 AM 66.0 °F 64.0 °F 93% 29.83 in 8.0 mi ESE 10.4 mph 19.6 mph 0.00 in   Overcast
6:05 AM 66.2 °F 64.4 °F 94% 29.83 in 8.0 mi ESE 11.5 mph 18.4 mph N/A   Overcast
6:24 AM 66.2 °F 64.4 °F 94% 29.82 in 8.0 mi ESE 10.4 mph 20.7 mph N/A   Overcast
6:56 AM 66.0 °F 64.9 °F 96% 29.82 in 8.0 mi East 10.4 mph - N/A   Overcast
7:14 AM 66.2 °F 64.4 °F 94% 29.82 in 7.0 mi ESE 8.1 mph 16.1 mph N/A   Overcast
7:56 AM 66.0 °F 64.9 °F 96% 29.83 in 6.0 mi ESE 8.1 mph - N/A   Overcast
8:38 AM 64.4 °F 64.4 °F 100% 29.82 in 1.8 mi ESE 5.8 mph - N/A   Overcast
8:52 AM 64.4 °F 64.4 °F 100% 29.82 in 2.5 mi Variable 6.9 mph - N/A   Overcast
8:56 AM 64.9 °F 64.9 °F 100% 29.82 in 2.5 mi SE 8.1 mph - N/A   Overcast
9:12 AM 66.2 °F 64.4 °F 94% 29.81 in 1.2 mi SE 8.1 mph - N/A   Overcast
9:25 AM 64.4 °F 64.4 °F 100% 29.81 in 0.8 mi Variable 4.6 mph - N/A   Overcast
9:35 AM 64.4 °F 64.4 °F 100% 29.81 in 1.5 mi SE 5.8 mph - N/A   Overcast
9:43 AM 66.2 °F 66.2 °F 100% 29.80 in 3.0 mi Calm Calm - N/A   Overcast
9:56 AM 66.9 °F 64.9 °F 93% 29.81 in 2.0 mi Variable 4.6 mph - N/A   Overcast
10:03 AM 66.2 °F 66.2 °F 100% 29.80 in 1.0 mi South 6.9 mph - N/A   Overcast
10:56 AM 69.1 °F 66.9 °F 93% 29.80 in 8.0 mi SW 6.9 mph - N/A   Overcast
11:56 AM 71.1 °F 68.0 °F 90% 29.77 in 10.0 mi SW 6.9 mph - N/A   Overcast
12:07 PM 71.6 °F 68.0 °F 88% 29.76 in 10.0 mi SSW 8.1 mph - N/A   Overcast
12:27 PM 73.4 °F 68.0 °F 83% 29.75 in 10.0 mi SSW 11.5 mph - N/A   Scattered Clouds
12:56 PM 73.0 °F 68.0 °F 84% 29.75 in 10.0 mi SSW 6.9 mph - N/A   Clear
1:56 PM 73.9 °F 69.1 °F 85% 29.73 in 10.0 mi South 6.9 mph - N/A   Clear
2:22 PM 73.4 °F 68.0 °F 83% 29.72 in 10.0 mi SSW 8.1 mph - N/A   Mostly Cloudy
2:56 PM 72.0 °F 69.1 °F 91% 29.71 in 10.0 mi South 6.9 mph - 0.00 in Rain Light Rain
3:19 PM 71.6 °F 69.8 °F 94% 29.69 in 10.0 mi SSW 9.2 mph - 0.00 in Rain Light Rain
3:51 PM 71.6 °F 68.0 °F 88% 29.68 in 10.0 mi South 8.1 mph - 0.00 in   Mostly Cloudy
3:56 PM 72.0 °F 68.0 °F 87% 29.68 in 10.0 mi South 9.2 mph - 0.00 in   Overcast
4:34 PM 71.6 °F 68.0 °F 88% 29.67 in 10.0 mi South 9.2 mph 18.4 mph N/A   Overcast
4:56 PM 71.1 °F 69.1 °F 93% 29.66 in 7.0 mi SSW 9.2 mph - N/A   Overcast
5:56 PM 70.0 °F 68.0 °F 93% 29.65 in 8.0 mi South 10.4 mph 17.3 mph N/A   Overcast
6:40 PM 71.6 °F 69.8 °F 94% 29.63 in 10.0 mi South 12.7 mph - N/A   Overcast
6:56 PM 71.1 °F 69.1 °F 93% 29.66 in 8.0 mi SSW 15.0 mph 21.9 mph 0.00 in Rain , Thunderstorm Light Rain
7:05 PM 66.2 °F 64.4 °F 94% 29.67 in 1.0 mi WSW 18.4 mph 33.4 mph 0.23 in Rain , Thunderstorm Heavy Rain
7:08 PM 66.2 °F 64.4 °F 94% 29.67 in 1.2 mi SW 17.3 mph 25.3 mph 0.25 in Rain , Thunderstorm Heavy Rain
7:13 PM 64.4 °F 62.6 °F 94% 29.66 in 3.0 mi SW 13.8 mph 25.3 mph 0.28 in Rain , Thunderstorm Heavy Rain
7:26 PM 64.4 °F 62.6 °F 94% 29.65 in 8.0 mi SW 13.8 mph - 0.29 in Rain Light Rain
7:45 PM 64.4 °F 62.6 °F 94% 29.65 in 6.0 mi SSW 9.2 mph - 0.31 in Rain Light Rain
7:56 PM 64.9 °F 64.0 °F 97% 29.65 in 10.0 mi SSW 9.2 mph - 0.31 in   Mostly Cloudy
8:47 PM 66.2 °F 64.4 °F 94% 29.65 in 10.0 mi SW 9.2 mph 17.3 mph N/A   Mostly Cloudy
8:56 PM 66.9 °F 64.9 °F 93% 29.65 in 10.0 mi SSW 10.4 mph - N/A   Mostly Cloudy
9:34 PM 68.0 °F 64.4 °F 88% 29.65 in 10.0 mi SSW 11.5 mph - N/A   Mostly Cloudy
9:42 PM 68.0 °F 66.2 °F 94% 29.65 in 10.0 mi SSW 9.2 mph 17.3 mph N/A   Mostly Cloudy
9:56 PM 68.0 °F 66.0 °F 93% 29.66 in 10.0 mi SSW 10.4 mph - N/A   Mostly Cloudy
10:28 PM 68.0 °F 66.2 °F 94% 29.66 in 8.0 mi SSW 11.5 mph - N/A   Mostly Cloudy
10:56 PM 69.1 °F 66.0 °F 90% 29.67 in 8.0 mi SW 12.7 mph - N/A   Overcast
11:18 PM 68.0 °F 64.4 °F 88% 29.67 in 10.0 mi SW 15.0 mph 23.0 mph N/A   Mostly Cloudy
11:56 PM 66.2 °F 64.4 °F 94% 29.68 in 10.0 mi WSW 12.7 mph - N/A   Clear